#�ϑ�����,���ϕ���,���ϕ���,�ő啗��,�ő啗����������,�ő�u�ԕ���,�ő�u�ԕ�����������
#(�N����),(m/s)   ,(16����),(m/s)   ,(16����)        ,(m/s)       ,(16����)            
2012/4/4 0:01,2.3,10,2.3,10,5.5,12
2012/4/4 0:02,2.5,10,2.5,10,7.4,9
2012/4/4 0:03,2.8,11,2.8,11,7.2,12
2012/4/4 0:04,2.8,11,2.8,11,7.1,11
2012/4/4 0:05,3,11,3,11,7.2,11
2012/4/4 0:06,3.1,11,3.1,11,6.9,13
2012/4/4 0:07,3.2,11,3.2,11,8.7,10
2012/4/4 0:08,3.2,11,3.2,11,4.5,12
2012/4/4 0:09,3.4,11,3.4,11,7.4,10
2012/4/4 0:10,3.6,11,3.6,11,6.5,11
2012/4/4 0:11,3.8,11,3.8,11,8.7,9
2012/4/4 0:12,3.7,11,3.9,11,5.2,10
2012/4/4 0:13,3.5,11,3.7,11,6,9
2012/4/4 0:14,3.5,11,3.6,11,5.2,9
2012/4/4 0:15,3.4,10,3.5,11,7.1,10
2012/4/4 0:16,3.4,10,3.5,11,5.4,9
2012/4/4 0:17,3.4,10,3.4,11,6.5,10
2012/4/4 0:18,3.5,10,3.6,11,5.2,10
2012/4/4 0:19,3.7,10,3.8,11,10.1,10
2012/4/4 0:20,3.7,10,3.7,11,7.9,9
2012/4/4 0:21,3.7,10,3.8,11,8.3,9
2012/4/4 0:22,3.8,10,3.8,10,6.8,10
2012/4/4 0:23,3.9,10,3.9,10,5.8,11
2012/4/4 0:24,3.9,10,3.9,10,6,9
2012/4/4 0:25,4,10,4,10,6.8,10
2012/4/4 0:26,3.9,10,4,10,6.3,9
2012/4/4 0:27,3.9,10,3.9,10,7,10
2012/4/4 0:28,4,10,4,10,6.4,9
2012/4/4 0:29,3.7,10,3.9,10,6.1,10
2012/4/4 0:30,3.5,10,3.8,10,4.9,9
2012/4/4 0:31,3.3,10,3.5,10,6.2,10
2012/4/4 0:32,3.2,10,3.3,10,7.5,10
2012/4/4 0:33,3.2,10,3.3,10,5.5,10
2012/4/4 0:34,3.2,10,3.2,10,4.9,9
2012/4/4 0:35,3,10,3.1,10,4.5,9
2012/4/4 0:36,3,10,3,10,5.8,9
2012/4/4 0:37,2.8,10,3,10,7.6,11
2012/4/4 0:38,3.1,10,3.1,10,9.9,11
2012/4/4 0:39,3.2,10,3.2,10,7.9,9
2012/4/4 0:40,3.2,10,3.2,10,5,10
2012/4/4 0:41,3.4,10,3.4,10,6.7,9
2012/4/4 0:42,3.5,10,3.5,10,6.3,9
2012/4/4 0:43,3.5,10,3.5,10,4.8,8
2012/4/4 0:44,3.4,10,3.5,10,3.1,11
2012/4/4 0:45,3.5,10,3.5,10,7.8,8
2012/4/4 0:46,3.5,10,3.5,10,6.2,10
2012/4/4 0:47,3.5,10,3.5,10,6,8
2012/4/4 0:48,3.1,10,3.5,10,5.5,10
2012/4/4 0:49,3.1,10,3.1,10,7.5,9
2012/4/4 0:50,3.3,10,3.3,10,7.7,9
2012/4/4 0:51,3.2,10,3.3,10,6.7,10
2012/4/4 0:52,3,10,3.1,10,6,10
2012/4/4 0:53,2.9,10,3,10,6.4,9
2012/4/4 0:54,3.1,10,3.2,10,6.2,10
2012/4/4 0:55,3.1,10,3.1,10,4.7,9
2012/4/4 0:56,3.1,10,3.2,10,9,9
2012/4/4 0:57,2.9,10,3.1,10,3.9,9
2012/4/4 0:58,3.1,10,3.1,10,9.9,8
2012/4/4 0:59,3.1,10,3.1,10,8.2,10
2012/4/4 1:00,3.2,10,3.2,10,11.1,9
2012/4/4 1:01,3.7,11,3.7,11,10.9,9
2012/4/4 1:02,3.8,11,3.8,11,7.7,9
2012/4/4 1:03,4,11,4,11,5.6,11
2012/4/4 1:04,4.1,11,4.1,11,7.1,10
2012/4/4 1:05,4.3,11,4.3,11,7.8,10
2012/4/4 1:06,4.4,11,4.4,11,7.4,10
2012/4/4 1:07,4.6,11,4.6,11,6.2,10
2012/4/4 1:08,4.5,10,4.6,11,5.1,11
2012/4/4 1:09,4.3,10,4.5,11,3.8,12
2012/4/4 1:10,4.2,10,4.3,11,6.5,8
2012/4/4 1:11,3.7,10,4.1,11,7.1,9
2012/4/4 1:12,3.6,10,3.7,11,6.7,8
2012/4/4 1:13,3.7,10,3.7,11,9.8,9
2012/4/4 1:14,4,10,4,11,11.7,11
2012/4/4 1:15,4,10,4.1,11,9.7,9
2012/4/4 1:16,3.9,10,4.1,11,7.4,11
2012/4/4 1:17,3.9,10,3.9,11,8.1,10
2012/4/4 1:18,4.2,10,4.2,10,9,10
2012/4/4 1:19,4.4,10,4.4,10,7.9,10
2012/4/4 1:20,4.4,10,4.4,10,7.9,8
2012/4/4 1:21,4.5,10,4.6,10,8.2,10
2012/4/4 1:22,4.8,10,4.8,10,7.5,10
2012/4/4 1:23,4.7,10,4.7,10,6.5,9
2012/4/4 1:24,4.3,10,4.7,10,5.7,11
2012/4/4 1:25,4.2,10,4.3,10,6,9
2012/4/4 1:26,4.3,10,4.4,10,6.4,11
2012/4/4 1:27,4.1,10,4.3,10,4.3,9
2012/4/4 1:28,3.6,10,4,10,3.2,9
2012/4/4 1:29,3.6,10,3.7,10,5.5,10
2012/4/4 1:30,3.5,10,3.7,10,5,11
2012/4/4 1:31,3.3,10,3.5,10,3.7,10
2012/4/4 1:32,3.2,10,3.3,10,5.5,11
2012/4/4 1:33,3.1,10,3.2,10,4.1,10
2012/4/4 1:34,3,10,3.1,10,4.4,9
2012/4/4 1:35,3,10,3,10,4.8,10
2012/4/4 1:36,2.9,10,3,10,5.5,9
2012/4/4 1:37,2.8,10,2.9,10,4.4,9
2012/4/4 1:38,3,10,3,10,5.5,9
2012/4/4 1:39,2.9,10,3,10,4.2,10
2012/4/4 1:40,2.9,10,2.9,10,4.3,9
2012/4/4 1:41,3,10,3,10,5.1,11
2012/4/4 1:42,2.9,10,3,10,5.4,9
2012/4/4 1:43,3,10,3,10,5.8,10
2012/4/4 1:44,2.9,10,3,10,4.1,9
2012/4/4 1:45,2.8,10,2.9,10,4.5,9
2012/4/4 1:46,2.7,10,2.8,10,4.9,10
2012/4/4 1:47,2.9,10,2.9,10,5.4,9
2012/4/4 1:48,2.8,10,2.9,10,4.8,10
2012/4/4 1:49,2.9,10,2.9,10,5.1,9
2012/4/4 1:50,2.9,9,2.9,10,5.7,5
2012/4/4 1:51,2.8,9,2.9,10,4.3,9
2012/4/4 1:52,2.8,9,2.9,10,6,10
2012/4/4 1:53,2.6,9,2.8,10,3.7,9
2012/4/4 1:54,2.6,9,2.6,10,2.9,9
2012/4/4 1:55,2.6,9,2.7,10,3,11
2012/4/4 1:56,2.4,9,2.6,10,2.2,9
2012/4/4 1:57,2.2,9,2.4,10,2,8
2012/4/4 1:58,2,9,2.2,10,2,12
2012/4/4 1:59,1.8,9,2,10,1.6,11
2012/4/4 2:00,1.5,9,1.7,9,2.4,9
2012/4/4 2:01,1.5,9,1.5,9,2.7,11
2012/4/4 2:02,1.3,9,1.5,9,2.7,11
2012/4/4 2:03,1.2,9,1.3,9,3,8
2012/4/4 2:04,1.2,9,1.3,9,2.4,10
2012/4/4 2:05,1.2,9,1.2,9,2.2,9
2012/4/4 2:06,1.3,9,1.3,9,3.1,10
2012/4/4 2:07,1.6,9,1.6,9,6.9,9
2012/4/4 2:08,1.7,9,1.7,9,5.5,9
2012/4/4 2:09,1.7,9,1.7,9,3,12
2012/4/4 2:10,1.8,9,1.8,9,4.9,9
2012/4/4 2:11,1.9,9,1.9,9,4.3,8
2012/4/4 2:12,1.9,9,1.9,9,2.7,10
2012/4/4 2:13,2,9,2,9,4.7,10
2012/4/4 2:14,2.2,9,2.2,9,4.4,8
2012/4/4 2:15,2.2,9,2.2,9,3.2,8
2012/4/4 2:16,2.2,10,2.2,9,3.5,12
2012/4/4 2:17,2,10,2.2,9,4.4,8
2012/4/4 2:18,2,10,2,9,3.7,9
2012/4/4 2:19,2.2,9,2.2,9,5.8,7
2012/4/4 2:20,2.3,10,2.3,9,4.2,13
2012/4/4 2:21,2.2,10,2.2,9,3.2,9
2012/4/4 2:22,2.3,10,2.3,9,3.7,12
2012/4/4 2:23,2.4,10,2.4,10,7.9,13
2012/4/4 2:24,2.4,11,2.5,10,5.1,12
2012/4/4 2:25,2.4,11,2.4,10,4.8,12
2012/4/4 2:26,2.4,11,2.5,10,4.3,10
2012/4/4 2:27,2.4,11,2.5,10,4.5,9
2012/4/4 2:28,2.5,12,2.5,10,3.5,11
2012/4/4 2:29,2.4,12,2.5,10,3.9,10
2012/4/4 2:30,2.4,12,2.4,10,4.2,12
2012/4/4 2:31,2.7,12,2.7,12,6.9,12
2012/4/4 2:32,2.8,12,2.9,12,5,14
2012/4/4 2:33,2.5,12,2.8,12,2.1,12
2012/4/4 2:34,2.5,12,2.5,12,4.2,9
2012/4/4 2:35,2.5,12,2.5,12,4.5,12
2012/4/4 2:36,2.6,12,2.6,12,4.8,12
2012/4/4 2:37,2.7,12,2.7,12,6.1,11
2012/4/4 2:38,2.7,12,2.7,12,3.8,9
2012/4/4 2:39,2.7,12,2.7,12,4.7,12
2012/4/4 2:40,2.6,12,2.7,12,4.3,12
2012/4/4 2:41,2.3,12,2.6,12,3,12
2012/4/4 2:42,2.3,12,2.3,12,4.8,10
2012/4/4 2:43,2.3,12,2.3,12,4.4,9
2012/4/4 2:44,2.4,12,2.4,12,3.7,10
2012/4/4 2:45,2.4,11,2.4,12,3.5,11
2012/4/4 2:46,2.2,11,2.3,12,2.5,10
2012/4/4 2:47,2,12,2.2,12,2.1,13
2012/4/4 2:48,1.9,12,2,12,2.4,15
2012/4/4 2:49,1.8,12,1.8,12,2.1,14
2012/4/4 2:50,1.8,12,1.8,12,2.7,15
2012/4/4 2:51,1.9,12,1.9,12,3.7,15
2012/4/4 2:52,1.9,13,1.9,12,4.4,14
2012/4/4 2:53,1.9,13,1.9,12,3.9,13
2012/4/4 2:54,1.9,13,2,12,4.2,13
2012/4/4 2:55,1.9,13,1.9,11,4.3,12
2012/4/4 2:56,2,13,2,11,3.7,13
2012/4/4 2:57,2,13,2,12,1.8,10
2012/4/4 2:58,2.1,13,2.1,13,3.1,10
2012/4/4 2:59,2.1,13,2.1,13,3.2,13
2012/4/4 3:00,2.3,13,2.3,13,6.1,13
2012/4/4 3:01,2.3,13,2.3,13,3.8,10
2012/4/4 3:02,2.3,12,2.3,13,4.2,10
2012/4/4 3:03,2.4,12,2.4,12,5.4,12
2012/4/4 3:04,2.5,12,2.5,12,4.4,13
2012/4/4 3:05,2.4,12,2.5,12,4.7,12
2012/4/4 3:06,2.4,12,2.4,12,2.4,14
2012/4/4 3:07,2.5,12,2.5,12,5.2,12
2012/4/4 3:08,2.6,13,2.6,12,4.4,14
2012/4/4 3:09,2.7,13,2.7,13,4.2,15
2012/4/4 3:10,2.5,13,2.7,13,3.2,12
2012/4/4 3:11,2.5,13,2.5,13,4.4,12
2012/4/4 3:12,2.4,13,2.5,13,3.2,12
2012/4/4 3:13,2.2,13,2.4,13,3.1,12
2012/4/4 3:14,2.2,13,2.2,13,3.3,12
2012/4/4 3:15,2.2,13,2.2,13,5.6,11
2012/4/4 3:16,2.3,13,2.3,13,4.1,13
2012/4/4 3:17,2.3,14,2.3,13,6.9,15
2012/4/4 3:18,2.3,14,2.3,13,3.8,13
2012/4/4 3:19,2.1,14,2.2,13,2.9,14
2012/4/4 3:20,2.1,13,2.1,13,3,13
2012/4/4 3:21,2.1,13,2.1,13,2.6,13
2012/4/4 3:22,2.1,13,2.1,13,3.3,13
2012/4/4 3:23,2.1,13,2.1,13,2.2,1
2012/4/4 3:24,1.9,14,2,13,1.4,10
2012/4/4 3:25,1.7,13,1.8,13,1.8,10
2012/4/4 3:26,1.6,13,1.7,13,1.9,8
2012/4/4 3:27,1.5,12,1.6,14,3,9
2012/4/4 3:28,1.5,11,1.5,14,3,9
2012/4/4 3:29,1.5,11,1.5,14,2.9,8
2012/4/4 3:30,1.5,10,1.5,13,2.6,9
2012/4/4 3:31,1.4,10,1.5,13,2.1,8
2012/4/4 3:32,1.4,9,1.4,13,2.5,8
2012/4/4 3:33,1.3,9,1.4,13,2,8
2012/4/4 3:34,1.4,9,1.4,14,1.8,8
2012/4/4 3:35,1.3,9,1.3,13,1,10
2012/4/4 3:36,1.3,9,1.3,13,2.2,9
2012/4/4 3:37,1.2,9,1.3,12,2.2,9
2012/4/4 3:38,1.2,9,1.2,11,2,8
2012/4/4 3:39,1.1,9,1.2,11,1.1,6
2012/4/4 3:40,1,9,1.1,10,1.3,9
2012/4/4 3:41,0.9,9,1,9,1,8
2012/4/4 3:42,0.9,9,0.9,9,1.8,9
2012/4/4 3:43,0.8,9,0.9,9,1.3,8
2012/4/4 3:44,0.8,9,0.8,9,1.5,8
2012/4/4 3:45,0.8,9,0.8,9,1.3,9
2012/4/4 3:46,0.8,9,0.8,9,2,9
2012/4/4 3:47,0.8,9,0.8,9,2.9,9
2012/4/4 3:48,0.8,9,0.8,9,2.6,9
2012/4/4 3:49,0.9,8,0.9,9,2.1,8
2012/4/4 3:50,1,8,1,9,2,9
2012/4/4 3:51,1,9,1,8,1.8,9
2012/4/4 3:52,1.1,9,1.1,9,2.2,8
2012/4/4 3:53,1.1,9,1.1,9,1.9,9
2012/4/4 3:54,1.2,9,1.2,9,1.6,8
2012/4/4 3:55,1.2,9,1.2,9,1.3,8
2012/4/4 3:56,1.1,9,1.2,9,1.1,8
2012/4/4 3:57,1.1,9,1.1,9,2.1,8
2012/4/4 3:58,1.1,9,1.1,9,2.2,8
2012/4/4 3:59,1.1,9,1.1,9,2,8
2012/4/4 4:00,1.1,8,1.1,9,2.7,8
2012/4/4 4:01,1.2,8,1.2,9,2.7,8
2012/4/4 4:02,1.2,8,1.2,9,2.7,8
2012/4/4 4:03,1.2,8,1.2,9,2.5,9
2012/4/4 4:04,1.3,8,1.3,8,2.6,8
2012/4/4 4:05,1.4,8,1.4,8,2,9
2012/4/4 4:06,1.5,8,1.5,8,2,8
2012/4/4 4:07,1.5,8,1.5,8,2.6,8
2012/4/4 4:08,1.5,8,1.5,8,3.1,7
2012/4/4 4:09,1.5,8,1.5,8,2.1,8
2012/4/4 4:10,1.4,8,1.5,8,2.2,7
2012/4/4 4:11,1.3,8,1.4,8,0.4,9
2012/4/4 4:12,1.2,8,1.3,8,1.1,9
2012/4/4 4:13,1.1,8,1.1,8,1.8,6
2012/4/4 4:14,1,8,1.1,8,2.4,8
2012/4/4 4:15,1,8,1.1,8,2.9,9
2012/4/4 4:16,1,8,1.1,8,2.4,8
2012/4/4 4:17,1,8,1,8,1.8,8
2012/4/4 4:18,1,8,1,8,2.6,8
2012/4/4 4:19,1,8,1,8,3.6,8
2012/4/4 4:20,1.1,8,1.1,8,3,7
2012/4/4 4:21,1.3,8,1.3,8,2.1,9
2012/4/4 4:22,1.4,8,1.4,8,3.2,7
2012/4/4 4:23,1.5,8,1.5,8,3.2,8
2012/4/4 4:24,1.6,8,1.6,8,2.5,8
2012/4/4 4:25,1.5,8,1.6,8,2.2,6
2012/4/4 4:26,1.6,8,1.6,8,3.1,8
2012/4/4 4:27,1.6,8,1.6,8,2.2,9
2012/4/4 4:28,1.6,8,1.6,8,2.7,8
2012/4/4 4:29,1.7,8,1.7,8,3.1,10
2012/4/4 4:30,1.8,8,1.8,8,3.9,8
2012/4/4 4:31,1.9,8,1.9,8,4.3,7
2012/4/4 4:32,2,8,2,8,4.1,7
2012/4/4 4:33,2.2,8,2.2,8,4.8,7
2012/4/4 4:34,2.2,8,2.2,8,3.7,8
2012/4/4 4:35,2.3,8,2.3,8,3.9,10
2012/4/4 4:36,2.4,8,2.4,8,4.2,8
2012/4/4 4:37,2.6,8,2.6,8,4.4,8
2012/4/4 4:38,2.6,8,2.6,8,4.9,7
2012/4/4 4:39,2.6,8,2.6,8,4.8,8
2012/4/4 4:40,2.5,8,2.6,8,2.6,8
2012/4/4 4:41,2.3,8,2.4,8,2.7,9
2012/4/4 4:42,2.1,8,2.3,8,1.5,7
2012/4/4 4:43,1.9,8,2,8,2.2,9
2012/4/4 4:44,1.8,8,1.9,8,3.1,8
2012/4/4 4:45,1.7,8,1.8,8,2,7
2012/4/4 4:46,1.5,8,1.7,8,1.5,7
2012/4/4 4:47,1.3,8,1.5,8,1.1,8
2012/4/4 4:48,1.1,8,1.3,8,0.5,15
2012/4/4 4:49,0.9,7,1,8,1.4,4
2012/4/4 4:50,0.8,7,0.9,8,1.3,4
2012/4/4 4:51,0.8,7,0.8,8,1.8,14
2012/4/4 4:52,0.8,6,0.8,8,1.9,16
2012/4/4 4:53,0.7,4,0.8,8,1.3,2
2012/4/4 4:54,0.7,3,0.7,8,1.8,4
2012/4/4 4:55,0.7,3,0.7,8,1.6,4
2012/4/4 4:56,0.8,3,0.8,8,2.5,6
2012/4/4 4:57,0.8,3,0.9,8,1.9,5
2012/4/4 4:58,0.8,4,0.8,8,0.9,7
2012/4/4 4:59,0.9,4,0.9,7,2.7,8
2012/4/4 5:00,1.1,5,1.1,5,2.5,6
2012/4/4 5:01,1.1,5,1.1,5,2.6,5
2012/4/4 5:02,1.4,5,1.4,5,6,6
2012/4/4 5:03,1.5,6,1.5,6,3.6,8
2012/4/4 5:04,1.6,6,1.6,6,3,5
2012/4/4 5:05,1.6,6,1.6,6,2.2,5
2012/4/4 5:06,1.6,6,1.6,6,2.7,5
2012/4/4 5:07,1.6,6,1.6,6,1,4
2012/4/4 5:08,1.7,6,1.7,6,4.1,8
2012/4/4 5:09,2,6,2,6,6.3,8
2012/4/4 5:10,2.1,6,2.1,6,4.9,7
2012/4/4 5:11,2.1,6,2.1,6,3.1,7
2012/4/4 5:12,2,6,2.1,6,4.4,8
2012/4/4 5:13,2.1,6,2.1,6,3.8,8
2012/4/4 5:14,2,7,2.1,6,4.5,7
2012/4/4 5:15,2.2,7,2.2,7,4.8,8
2012/4/4 5:16,2.4,7,2.4,7,4.2,9
2012/4/4 5:17,2.5,8,2.5,8,3.9,9
2012/4/4 5:18,2.5,8,2.6,8,4.8,8
2012/4/4 5:19,2.3,8,2.5,8,2,11
2012/4/4 5:20,2,8,2.2,8,3.1,9
2012/4/4 5:21,2,8,2,8,1.8,9
2012/4/4 5:22,1.8,8,2,8,1.6,7
2012/4/4 5:23,1.7,8,1.8,8,1.6,7
2012/4/4 5:24,1.6,8,1.7,8,1.8,7
2012/4/4 5:25,1.3,8,1.5,8,1,7
2012/4/4 5:26,1,8,1.3,8,0.5,10
2012/4/4 5:27,0.9,8,1,8,1.1,10
2012/4/4 5:28,0.7,8,0.9,8,0.3,8
2012/4/4 5:29,0.6,7,0.7,8,0.6,16
2012/4/4 5:30,0.5,7,0.6,8,0.8,15
2012/4/4 5:31,0.5,7,0.5,8,2.1,8
2012/4/4 5:32,0.5,7,0.5,8,1.8,8
2012/4/4 5:33,0.5,7,0.5,8,1.4,9
2012/4/4 5:34,0.5,7,0.5,8,2.1,8
2012/4/4 5:35,0.7,8,0.7,8,2.7,8
2012/4/4 5:36,0.8,8,0.8,8,2.5,9
2012/4/4 5:37,1,8,1,8,3,9
2012/4/4 5:38,1.1,8,1.1,8,2.1,9
2012/4/4 5:39,1.1,8,1.1,8,1.3,11
2012/4/4 5:40,1.1,9,1.1,8,2,8
2012/4/4 5:41,1,9,1.1,8,0.9,7
2012/4/4 5:42,1,8,1,8,2,9
2012/4/4 5:43,1.1,8,1.1,8,2,8
2012/4/4 5:44,1.2,9,1.2,8,4.2,9
2012/4/4 5:45,1.2,9,1.2,8,3,8
2012/4/4 5:46,1.2,9,1.2,8,2.1,8
2012/4/4 5:47,1.2,9,1.2,8,2.5,8
2012/4/4 5:48,1.2,8,1.2,8,3.1,9
2012/4/4 5:49,1.4,8,1.4,8,4.7,9
2012/4/4 5:50,1.6,8,1.6,8,4.4,9
2012/4/4 5:51,1.9,8,1.9,8,5.8,9
2012/4/4 5:52,2.1,9,2.1,9,7.2,10
2012/4/4 5:53,2.2,9,2.2,9,3.8,10
2012/4/4 5:54,2,9,2.2,9,2.4,11
2012/4/4 5:55,2,9,2,9,2.1,10
2012/4/4 5:56,2,9,2,9,3.1,7
2012/4/4 5:57,2,9,2,9,3.9,10
2012/4/4 5:58,2.1,9,2.1,9,3.5,10
2012/4/4 5:59,2,10,2.1,9,2.5,9
2012/4/4 6:00,1.9,10,1.9,9,3.1,10
2012/4/4 6:01,1.8,10,1.9,9,3.7,9
2012/4/4 6:02,1.6,10,1.8,9,3.7,9
2012/4/4 6:03,1.6,9,1.6,9,2,9
2012/4/4 6:04,1.5,9,1.6,9,1.6,10
2012/4/4 6:05,1.5,9,1.5,9,1.5,9
2012/4/4 6:06,1.4,9,1.5,9,1.6,9
2012/4/4 6:07,1.4,9,1.4,9,3,9
2012/4/4 6:08,1.3,9,1.4,9,2.7,10
2012/4/4 6:09,1.2,9,1.2,10,1.6,9
2012/4/4 6:10,1.1,9,1.2,10,1.4,12
2012/4/4 6:11,1,10,1,9,1.8,14
2012/4/4 6:12,1.1,10,1.1,10,2.9,16
2012/4/4 6:13,1.1,11,1.1,9,2.4,16
2012/4/4 6:14,1.2,12,1.2,9,1.9,16
2012/4/4 6:15,1.1,13,1.2,9,1.3,14
2012/4/4 6:16,1.1,13,1.2,9,1.3,7
2012/4/4 6:17,1.1,13,1.1,9,2,6
2012/4/4 6:18,1.1,14,1.1,9,1.1,5
2012/4/4 6:19,1.1,15,1.1,9,0.6,4
2012/4/4 6:20,1,15,1,11,0.5,12
2012/4/4 6:21,0.9,14,1,11,0.9,11
2012/4/4 6:22,0.7,12,0.9,11,0.9,11
2012/4/4 6:23,0.5,10,0.7,11,0.6,3
2012/4/4 6:24,0.5,10,0.5,12,1.4,16
2012/4/4 6:25,0.5,11,0.5,13,1.4,15
2012/4/4 6:26,0.5,14,0.5,13,1.1,13
2012/4/4 6:27,0.5,14,0.5,13,1.8,7
2012/4/4 6:28,0.5,13,0.5,14,1.9,7
2012/4/4 6:29,0.6,11,0.6,15,1.1,9
2012/4/4 6:30,0.6,10,0.6,15,0.9,9
2012/4/4 6:31,0.6,9,0.6,14,0.8,10
2012/4/4 6:32,0.6,9,0.6,12,0.9,10
2012/4/4 6:33,0.7,9,0.7,9,2.2,7
2012/4/4 6:34,0.9,9,0.9,9,3.6,8
2012/4/4 6:35,1,8,1,8,3.7,8
2012/4/4 6:36,1.1,8,1.1,8,2.6,8
2012/4/4 6:37,1.1,8,1.1,8,1.1,7
2012/4/4 6:38,1.1,8,1.1,8,2.4,9
2012/4/4 6:39,1,8,1.1,8,1.1,9
2012/4/4 6:40,1.1,9,1.1,8,0.8,12
2012/4/4 6:41,1.1,8,1.1,8,2.1,8
2012/4/4 6:42,1.1,8,1.1,8,1.1,3
2012/4/4 6:43,1,7,1.1,8,0.8,2
2012/4/4 6:44,0.8,7,1,8,0.8,1
2012/4/4 6:45,0.7,7,0.8,8,1.9,15
2012/4/4 6:46,0.6,5,0.7,8,1.9,15
2012/4/4 6:47,0.6,5,0.6,8,0.4,6
2012/4/4 6:48,0.5,5,0.6,8,0.6,11
2012/4/4 6:49,0.6,5,0.6,8,2.1,7
2012/4/4 6:50,0.6,6,0.6,8,2.5,10
2012/4/4 6:51,0.7,7,0.7,8,2,9
2012/4/4 6:52,0.8,9,0.8,8,2.1,10
2012/4/4 6:53,0.8,10,0.8,7,2.5,9
2012/4/4 6:54,1,9,1,9,2.4,8
2012/4/4 6:55,1,9,1,9,2.4,7
2012/4/4 6:56,1.1,8,1.1,8,2.1,8
2012/4/4 6:57,1.3,8,1.3,8,2.2,6
2012/4/4 6:58,1.5,8,1.5,8,3.5,8
2012/4/4 6:59,1.6,8,1.6,8,3.7,6
2012/4/4 7:00,1.7,7,1.7,8,3.8,6
2012/4/4 7:01,1.7,7,1.7,8,2.7,8
2012/4/4 7:02,1.7,7,1.8,7,3.1,6
2012/4/4 7:03,1.8,7,1.8,7,2.4,5
2012/4/4 7:04,1.9,6,1.9,7,3.2,5
2012/4/4 7:05,1.8,6,1.8,7,1.9,7
2012/4/4 7:06,1.7,6,1.8,7,1.1,7
2012/4/4 7:07,1.6,6,1.7,7,2,2
2012/4/4 7:08,1.5,6,1.6,7,2.1,4
2012/4/4 7:09,1.2,6,1.4,7,1.8,10
2012/4/4 7:10,1.1,6,1.2,7,1.3,9
2012/4/4 7:11,1.1,6,1.1,7,2,11
2012/4/4 7:12,1,6,1.1,7,1.3,11
2012/4/4 7:13,1,6,1,7,2.2,14
2012/4/4 7:14,0.8,8,1,6,1,6
2012/4/4 7:15,0.9,8,0.9,6,2.1,7
2012/4/4 7:16,1,8,1,6,3.6,8
2012/4/4 7:17,1.2,9,1.2,6,3.9,8
2012/4/4 7:18,1.3,9,1.3,6,3.8,8
2012/4/4 7:19,1.6,9,1.6,9,4.2,8
2012/4/4 7:20,1.8,9,1.8,9,5.2,8
2012/4/4 7:21,1.8,9,1.8,9,3.3,9
2012/4/4 7:22,1.9,9,1.9,9,2.6,12
2012/4/4 7:23,1.8,9,1.9,9,2.9,10
2012/4/4 7:24,1.9,9,1.9,9,2.5,12
2012/4/4 7:25,1.9,9,1.9,9,2.9,9
2012/4/4 7:26,2,9,2,9,4.3,10
2012/4/4 7:27,1.9,9,2,9,2.5,11
2012/4/4 7:28,1.7,9,1.9,9,2.7,8
2012/4/4 7:29,1.7,10,1.7,9,6.2,10
2012/4/4 7:30,1.7,10,1.7,9,5.4,11
2012/4/4 7:31,2,10,2,9,5.7,10
2012/4/4 7:32,2,10,2,9,5.4,8
2012/4/4 7:33,2.1,10,2.1,10,3.6,13
2012/4/4 7:34,2.1,10,2.1,10,3.2,9
2012/4/4 7:35,2.2,10,2.2,10,5.1,11
2012/4/4 7:36,2,10,2.2,10,3.9,10
2012/4/4 7:37,2.3,10,2.3,10,5.8,11
2012/4/4 7:38,2.4,11,2.4,10,5.8,12
2012/4/4 7:39,2.6,11,2.6,11,6.7,12
2012/4/4 7:40,2.7,11,2.7,11,8.4,11
2012/4/4 7:41,2.6,11,2.7,11,5.6,10
2012/4/4 7:42,2.5,11,2.5,11,4.5,10
2012/4/4 7:43,2.7,11,2.7,11,6.2,12
2012/4/4 7:44,3,11,3,11,8.4,10
2012/4/4 7:45,3.1,11,3.1,11,8.2,9
2012/4/4 7:46,3.3,11,3.3,11,6.4,9
2012/4/4 7:47,3.3,11,3.3,11,8.3,9
2012/4/4 7:48,3.4,11,3.4,11,8.2,9
2012/4/4 7:49,3.5,10,3.6,10,9.4,9
2012/4/4 7:50,3.4,10,3.4,10,9.1,10
2012/4/4 7:51,3.6,10,3.7,10,11.1,9
2012/4/4 7:52,3.7,9,3.7,10,5.5,10
2012/4/4 7:53,3.6,9,3.8,9,5.7,10
2012/4/4 7:54,3.4,9,3.6,9,6.1,9
2012/4/4 7:55,3.3,10,3.4,9,3.9,10
2012/4/4 7:56,3.1,9,3.2,9,3.9,9
2012/4/4 7:57,3,9,3.1,9,7.7,8
2012/4/4 7:58,3,9,3,9,6.7,9
2012/4/4 7:59,2.8,9,2.9,9,5.6,9
2012/4/4 8:00,2.6,9,2.8,9,6,9
2012/4/4 8:01,2.7,9,2.7,9,8.9,9
2012/4/4 8:02,2.7,9,2.7,9,5,8
2012/4/4 8:03,2.6,9,2.6,9,4.1,6
2012/4/4 8:04,2.5,9,2.6,9,2.5,12
2012/4/4 8:05,2.5,9,2.5,9,3.3,12
2012/4/4 8:06,2.7,9,2.7,9,7.5,9
2012/4/4 8:07,2.7,9,2.7,9,6.5,8
2012/4/4 8:08,2.5,10,2.6,9,4.9,8
2012/4/4 8:09,2.9,10,2.9,10,8.6,8
2012/4/4 8:10,3.1,9,3.1,9,10,8
2012/4/4 8:11,2.9,9,3,9,7,10
2012/4/4 8:12,3,9,3,9,6.1,8
2012/4/4 8:13,3.3,9,3.3,9,8.4,8
2012/4/4 8:14,3.4,9,3.4,9,7,9
2012/4/4 8:15,3.6,9,3.6,9,6.8,8
2012/4/4 8:16,3.7,9,3.7,9,7.9,8
2012/4/4 8:17,3.8,9,3.8,9,6.9,9
2012/4/4 8:18,4.1,8,4.1,8,6.5,9
2012/4/4 8:19,4,8,4.1,8,6.2,8
2012/4/4 8:20,3.9,8,3.9,8,6.2,9
2012/4/4 8:21,3.8,9,3.9,8,7.2,9
2012/4/4 8:22,3.9,8,3.9,8,5.6,8
2012/4/4 8:23,3.9,8,4,8,8.2,9
2012/4/4 8:24,3.8,8,3.9,8,8.4,8
2012/4/4 8:25,3.7,8,3.8,8,3.6,7
2012/4/4 8:26,3.5,8,3.7,8,4.1,9
2012/4/4 8:27,3.3,8,3.5,8,4.9,9
2012/4/4 8:28,3.3,8,3.3,8,7,9
2012/4/4 8:29,3.3,8,3.3,8,7.7,8
2012/4/4 8:30,3.2,9,3.3,8,6,8
2012/4/4 8:31,3.3,9,3.3,8,8.2,9
2012/4/4 8:32,3.3,9,3.3,8,10.7,9
2012/4/4 8:33,3.3,9,3.3,8,8.7,9
2012/4/4 8:34,3.4,9,3.4,8,9.8,10
2012/4/4 8:35,3.8,9,3.8,9,11.7,9
2012/4/4 8:36,4.1,9,4.1,9,8.4,9
2012/4/4 8:37,4.3,9,4.3,9,7.8,10
2012/4/4 8:38,4.3,10,4.3,9,8.4,10
2012/4/4 8:39,4.4,10,4.4,10,10.1,10
2012/4/4 8:40,4.4,10,4.5,10,8.3,9
2012/4/4 8:41,4.2,10,4.3,10,4.8,9
2012/4/4 8:42,3.9,10,4.1,10,4.5,8
2012/4/4 8:43,4,10,4,10,7.9,8
2012/4/4 8:44,3.7,10,4,10,6.8,9
2012/4/4 8:45,3.1,10,3.7,10,2.6,9
2012/4/4 8:46,3.1,10,3.1,10,8.4,9
2012/4/4 8:47,3.2,10,3.2,10,10.2,11
2012/4/4 8:48,2.9,10,3.1,10,5.1,8
2012/4/4 8:49,2.5,10,2.9,10,6.3,10
2012/4/4 8:50,2.6,10,2.6,10,6,8
2012/4/4 8:51,2.7,10,2.7,10,8.2,9
2012/4/4 8:52,3,10,3,10,6.2,8
2012/4/4 8:53,3,10,3.1,10,9.8,10
2012/4/4 8:54,3.2,10,3.2,10,7.5,12
2012/4/4 8:55,3.6,10,3.6,10,8.9,11
2012/4/4 8:56,3.4,11,3.6,10,4.1,11
2012/4/4 8:57,3.4,11,3.4,10,9.8,9
2012/4/4 8:58,3.8,11,3.8,11,9.5,10
2012/4/4 8:59,4.1,11,4.1,11,7.9,11
2012/4/4 9:00,4.1,11,4.1,11,6.8,11
2012/4/4 9:01,3.9,11,4.1,11,5.6,10
2012/4/4 9:02,3.9,11,3.9,11,7.2,10
2012/4/4 9:03,3.9,11,4,11,6.5,10
2012/4/4 9:04,3.9,11,3.9,11,8.6,10
2012/4/4 9:05,3.7,10,3.9,11,9.7,10
2012/4/4 9:06,3.7,10,3.8,11,4.9,12
2012/4/4 9:07,3.6,11,3.8,11,7.2,12
2012/4/4 9:08,3.3,11,3.6,11,9.3,10
2012/4/4 9:09,3.2,11,3.3,11,6.8,10
2012/4/4 9:10,3.4,10,3.4,11,7.9,9
2012/4/4 9:11,4,11,4,11,10.9,13
2012/4/4 9:12,4.1,11,4.1,11,9,13
2012/4/4 9:13,4.1,11,4.1,11,8.1,12
2012/4/4 9:14,4.3,11,4.3,11,7.9,13
2012/4/4 9:15,4.5,11,4.5,11,9.7,12
2012/4/4 9:16,4.5,11,4.5,11,7.6,9
2012/4/4 9:17,4.5,11,4.6,11,8.3,11
2012/4/4 9:18,4.8,11,4.8,11,10.8,9
2012/4/4 9:19,4.8,11,4.9,11,7.8,10
2012/4/4 9:20,4.6,11,4.8,11,5.2,13
2012/4/4 9:21,4.2,11,4.6,11,5.7,10
2012/4/4 9:22,3.9,11,4.1,11,9,10
2012/4/4 9:23,3.9,11,4,11,6.4,10
2012/4/4 9:24,3.7,11,3.9,11,6.8,12
2012/4/4 9:25,3.5,11,3.7,11,7.2,11
2012/4/4 9:26,3.7,11,3.8,11,7.7,10
2012/4/4 9:27,3.9,11,4,11,8.6,12
2012/4/4 9:28,3.7,11,3.9,11,6.4,13
2012/4/4 9:29,3.7,11,3.8,11,7.1,12
2012/4/4 9:30,3.7,11,3.7,11,5.2,9
2012/4/4 9:31,3.8,11,3.8,11,6.4,9
2012/4/4 9:32,3.6,11,3.8,11,4.2,14
2012/4/4 9:33,3.5,12,3.6,11,4.9,10
2012/4/4 9:34,3.4,11,3.5,11,5,9
2012/4/4 9:35,3.2,11,3.4,11,3.6,10
2012/4/4 9:36,3.1,11,3.2,11,5.6,10
2012/4/4 9:37,2.8,11,3,11,8.2,9
2012/4/4 9:38,3,11,3,11,10,11
2012/4/4 9:39,3,11,3.1,11,8.7,9
2012/4/4 9:40,3.3,11,3.3,11,8.5,11
2012/4/4 9:41,3.2,11,3.3,11,6.3,14
2012/4/4 9:42,3.4,11,3.4,11,6.7,11
2012/4/4 9:43,3.4,11,3.4,11,6,10
2012/4/4 9:44,3.5,11,3.5,11,6.7,11
2012/4/4 9:45,3.8,11,3.8,11,10.2,11
2012/4/4 9:46,3.9,11,3.9,11,7.6,13
2012/4/4 9:47,4,12,4.1,11,7,14
2012/4/4 9:48,3.5,12,3.9,11,3,14
2012/4/4 9:49,3.4,12,3.5,11,7.8,14
2012/4/4 9:50,3.4,12,3.4,11,7.2,12
2012/4/4 9:51,3.6,11,3.6,11,7.7,10
2012/4/4 9:52,3.7,11,3.7,11,7,10
2012/4/4 9:53,3.8,12,3.8,11,7.8,11
2012/4/4 9:54,3.6,12,3.8,11,3.8,16
2012/4/4 9:55,3.6,12,3.6,11,7.1,9
2012/4/4 9:56,3.8,12,3.8,11,9.2,10
2012/4/4 9:57,3.6,11,3.8,12,4.7,12
2012/4/4 9:58,3.8,11,3.8,12,7.1,10
2012/4/4 9:59,4,11,4,11,7.4,12
2012/4/4 10:00,3.9,11,4,11,8.7,12
2012/4/4 10:01,3.8,11,3.9,11,6.8,11
2012/4/4 10:02,3.6,11,3.8,11,5,9
2012/4/4 10:03,3.8,11,3.8,11,8.1,13
2012/4/4 10:04,4,11,4,11,7.1,12
2012/4/4 10:05,4.1,11,4.1,11,7.2,11
2012/4/4 10:06,4,11,4.1,11,7.1,10
2012/4/4 10:07,4.3,11,4.3,11,12.2,9
2012/4/4 10:08,4.2,11,4.3,11,9.5,9
2012/4/4 10:09,4.2,11,4.3,11,7.6,10
2012/4/4 10:10,4.2,11,4.2,11,7.6,10
2012/4/4 10:11,4.2,11,4.2,11,7.4,10
2012/4/4 10:12,4.2,11,4.2,11,3.5,11
2012/4/4 10:13,4,11,4.2,11,13,10
2012/4/4 10:14,4.1,11,4.2,11,8.4,9
2012/4/4 10:15,4.1,10,4.1,11,10.7,10
2012/4/4 10:16,4.2,10,4.2,11,8.7,8
2012/4/4 10:17,4,10,4.1,11,6.4,10
2012/4/4 10:18,4.1,10,4.1,11,9.5,10
2012/4/4 10:19,4.1,10,4.1,11,6.9,12
2012/4/4 10:20,4,11,4.2,11,5.8,11
2012/4/4 10:21,3.7,10,4,11,2.7,7
2012/4/4 10:22,3.7,10,3.7,11,7.2,10
2012/4/4 10:23,3.8,10,3.9,11,8.1,9
2012/4/4 10:24,3.6,10,3.8,10,7.5,9
2012/4/4 10:25,3.5,10,3.6,10,6.8,10
2012/4/4 10:26,3.3,10,3.5,10,7.5,8
2012/4/4 10:27,3.3,10,3.3,10,8.3,7
2012/4/4 10:28,3.1,10,3.3,10,6.2,9
2012/4/4 10:29,3.3,9,3.3,10,10.3,10
2012/4/4 10:30,3.6,9,3.6,11,10.9,11
2012/4/4 10:31,4.1,10,4.1,10,9.5,10
2012/4/4 10:32,4.5,10,4.5,10,8.5,11
2012/4/4 10:33,4.2,10,4.4,10,4.7,9
2012/4/4 10:34,4.2,10,4.2,10,5.8,10
2012/4/4 10:35,4.4,10,4.4,10,10.1,9
2012/4/4 10:36,4.5,10,4.5,10,7.8,10
2012/4/4 10:37,4.6,10,4.7,10,7.9,8
2012/4/4 10:38,4.6,10,4.6,10,6.3,9
2012/4/4 10:39,4.4,10,4.6,10,5.6,9
2012/4/4 10:40,3.9,10,4.3,10,5.5,11
2012/4/4 10:41,3.8,10,3.9,10,10.2,10
2012/4/4 10:42,3.5,10,3.8,10,9.1,8
2012/4/4 10:43,4,10,4,10,10.1,10
2012/4/4 10:44,4.2,10,4.2,10,9.9,10
2012/4/4 10:45,4.1,10,4.2,10,7.1,9
2012/4/4 10:46,4,10,4.2,10,7.8,9
2012/4/4 10:47,3.9,10,4,10,7.2,9
2012/4/4 10:48,3.9,10,4,10,6.8,9
2012/4/4 10:49,3.9,10,3.9,10,6,12
2012/4/4 10:50,3.9,11,3.9,10,7.9,13
2012/4/4 10:51,3.7,11,3.9,10,5.2,10
2012/4/4 10:52,3.6,11,3.7,10,5.6,10
2012/4/4 10:53,3.1,11,3.6,10,3.3,8
2012/4/4 10:54,2.7,11,3,10,6.3,10
2012/4/4 10:55,2.7,11,2.8,10,7,11
2012/4/4 10:56,2.8,11,2.8,10,10.3,10
2012/4/4 10:57,2.8,11,2.8,10,6.9,9
2012/4/4 10:58,2.8,11,2.8,10,5.5,10
2012/4/4 10:59,2.9,10,2.9,10,8.1,10
2012/4/4 11:00,3.1,10,3.1,11,9.9,10
2012/4/4 11:01,3.3,10,3.3,11,9.5,9
2012/4/4 11:02,3.5,10,3.5,11,6.7,10
2012/4/4 11:03,3.8,10,3.8,10,8.4,10
2012/4/4 11:04,4,10,4,10,10,10
2012/4/4 11:05,4,10,4,10,6.2,10
2012/4/4 11:06,3.9,10,4,10,4.7,14
2012/4/4 11:07,3.9,10,3.9,10,5.5,11
2012/4/4 11:08,3.9,10,3.9,10,4.7,10
2012/4/4 11:09,3.7,10,3.9,10,4.3,10
2012/4/4 11:10,3.5,10,3.7,10,5.5,9
2012/4/4 11:11,3.4,10,3.5,10,6.9,11
2012/4/4 11:12,3.4,11,3.4,10,7.2,12
2012/4/4 11:13,3.3,11,3.4,10,6,10
2012/4/4 11:14,3.3,11,3.3,10,9.9,10
2012/4/4 11:15,3.5,10,3.5,10,9.7,10
2012/4/4 11:16,3.5,10,3.5,10,5.8,9
2012/4/4 11:17,3.5,10,3.5,10,6.7,9
2012/4/4 11:18,3.5,10,3.5,10,5.2,9
2012/4/4 11:19,3.6,10,3.6,10,5.1,10
2012/4/4 11:20,3.8,10,3.8,10,7.9,11
2012/4/4 11:21,3.8,10,3.8,10,6.8,10
2012/4/4 11:22,3.9,10,3.9,10,9.1,10
2012/4/4 11:23,3.8,10,3.9,10,5.7,9
2012/4/4 11:24,3.7,10,3.8,10,5.6,8
2012/4/4 11:25,3.7,10,3.7,10,8.9,9
2012/4/4 11:26,3.7,10,3.7,10,6.4,9
2012/4/4 11:27,3.7,10,3.7,10,7.1,10
2012/4/4 11:28,3.8,10,3.8,10,9.1,9
2012/4/4 11:29,3.8,10,3.8,10,6.8,10
2012/4/4 11:30,4,10,4,10,11.7,10
2012/4/4 11:31,4.2,10,4.2,10,9,10
2012/4/4 11:32,4.4,10,4.4,10,9.9,11
2012/4/4 11:33,4.5,10,4.5,10,6.1,9
2012/4/4 11:34,4.4,10,4.6,10,4.1,9
2012/4/4 11:35,4.2,10,4.4,10,4.4,14
2012/4/4 11:36,4.1,10,4.2,10,4.5,10
2012/4/4 11:37,3.9,10,4.1,10,4.8,9
2012/4/4 11:38,3.6,10,3.8,10,3,10